GW3650 Weather Reports


Display with metric or nautical units.
time (UTC)temp
F
wind
direction
speed
MPH
gust
MPH
rain 1hr
in
rain 24hr
in
rain mn
in
humidity
%
barometer
mb
20260504233058 44 0.0 1.0 0.00 0.00 0.00 92 1027.9
20260504230017 45 0 1.0 3.0 0.00 0.00 0.00 91 1027.7
20260504223018 46 0 2.0 5.0 0.00 0.00 0.00 91 1027.7
20260504220017 46 0 2.0 5.0 0.00 0.00 0.00 91 1027.7
20260504213017 47 0 2.0 5.0 0.00 0.00 0.00 91 1027.7
20260504210018 45 0 1.0 3.0 0.00 0.00 0.00 91 1027.8
20260504203017 45 0 1.0 3.0 0.00 0.00 0.00 89 1027.8
20260504200038 46 0 1.0 4.0 0.00 0.00 0.00 89 1027.4
20260504193037 48 0 1.0 5.0 0.00 0.00 0.00 90 1027.5
20260504190017 47 0.0 1.0 0.00 0.00 0.00 90 1027.5
20260504183017 46 0.0 0.0 0.00 0.00 0.00 88 1027.7
20260504180037 47 0.0 0.0 0.00 0.00 0.00 88 1027.6
20260504173016 46 0.0 0.0 0.00 0.00 0.00 88 1027.9
20260504050019 63 113 7.0 13.0 0.00 0.00 0.00 68 1027.9
20260504043039 62 113 8.0 15.0 0.00 0.00 0.00 70 1028.3
20260504040018 61 113 8.0 16.0 0.00 0.00 0.00 74 1028.8
20260504033017 61 113 8.0 15.0 0.00 0.00 0.00 75 1029.3
20260504030018 59 113 10.0 18.0 0.00 0.00 0.00 77 1029.2
20260504023018 59 113 10.0 17.0 0.00 0.00 0.00 79 1029.4
20260504020038 58 113 13.0 17.0 0.00 0.00 0.00 81 1029.9
20260504013017 56 113 9.0 17.0 0.00 0.00 0.00 89 1029.8
20260504010018 53 158 2.0 8.0 0.00 0.00 0.00 93 1029.7
20260504003017 49 0 1.0 3.0 0.00 0.00 0.00 93 1030.0
20260504000018 48 158 1.0 5.0 0.00 0.00 0.00 93 1029.4